STARLINK-1759, 46340

Orbit data source: Space-Track

STARLINK-1759, 46340 is a payload satellite owned by SpaceX/Seattle (US) in LEO that was launched on Thu, 03 Sep 2020 UTC via an FALCON 9 launch vehicle from the Air Force Eastern Test Range (AFETR). Payload-class satellites include a variety of spacecraft equipped with specific instruments for various scientific and technological missions. These include communications satellites like Starlink; space stations such as the ISS; scientific satellites like the Hubble; Earth observation satellites from companies like Planet Labs, Umbra, and HawkEye 360; GPS; miniature CubeSats for education and research; and military/defense satellites.

Loading next visibility...
Identifier
46340, 2020-062R
Orbit
LEO
Country
Flag of USUS
Related business
Manufacturer
SpaceX/Seattle
Mission
Partially operational Commercial Communications
Bus & Motor
STARLINK, Unknown motor
Mass
260 kg wet, ~248 kg dry
Launch date (UTC)
2020-09-03 (5 years ago)
Launch vehicle
FALCON 9
Launch site
Air Force Eastern Test Range (AFETR)
Object type
Payload
Rocket body
Debris
Shape & HBR
Box + 1 Pan, 4.4 m
Radar Cross Section
13.562 m², Large (>1 m²)

Expand to show TLE details & history
Last TLE update: 18 hours ago

TLE from 18 hours ago
0 STARLINK-1759
1 46340U 20062R   25258.21395802  .00100562  00000-0  44295-2 0  9999
2 46340  53.0497  78.5057 0006324 150.3200 209.8155 15.21000507277934
Epoch: 2025-09-15T05:08Z
TLE epoch observation values (Epoch: 2025-09-15T05:08:05.972Z)
Latitude
-0.00006°
Longitude
7.05894°
Altitude
507.482 km
Speed
7.609 km/s
True Right ascension
05h 14m 01s
True Declination
0° 00' 00"
Sunlit
Object was in daylight at epoch
Visualization orbit readout
Latitude
Unknown
Longitude
Unknown
Altitude
Unknown
Speed
Unknown
Apparent Right ascension
Unknown
Apparent Declination
Unknown
Sunlit
N/A
Visualization observer readout
Local Sidereal Time
16:12:06
Azimuth
Unknown
Elevation
Unknown
Doppler factor
Unknown
Orbital elements
Apogee altitude
507.446 km
Perigee altitude
498.743 km
Semi-major axis
6,881.232 km
Eccentricity
0.00063
Inclination
53.0497°
RAAN
78.5057°
Arg. of periapsis
150.32°
True anomaly
209.77949°
Mean anomaly
209.8155°
Eccentric anomaly
209.79749°
Mean motion
3.80228 °/min
Orbital period
94.68 mins
BSTAR
0.0044295
Loading maneuver chart data...
Computing Atmospheric mass density...
Loading historical data...
Loading historical data...
Loading historical data...
Loading historical data...
Loading historical data...
Loading historical data...
Loading historical data...

Documentation

Showing up to 5 results
|